Location: Unspecified
(64.9000°N, 0.0000°E)
Time: 13:14:55
(UTC+00:00)

A-11 Canister half - Pass Details

Date: 18 June 2019
Orbit: 1526 x 1682 km, 47.3° (Epoch: 24 August)

Event Time Altitude Azimuth Distance (km) Brightness Sun altitude
Rises 08:20:18 0° 242° (WSW) 4,691 11.2 35.6°
Reaches altitude 10° 08:23:57 10° 231° (SW) 3,699 10.9 35.9°
Maximum altitude 08:31:08 26° 179° (S) 2,648 10.9 36.6°
Drops below altitude 10° 08:38:19 10° 128° (SE) 3,710 12.3 37.3°
Sets 08:42:00 0° 117° (ESE) 4,707 12.5 37.7°
